Ithaca, NY
on Friday, December 8, 2017

Friday
       
Previous Day Next Day
Daily Summary
 ActualAverageRecord
Temperature
Mean Temperature °F °C °F °C  
Max Temperature 30°F -1°C 38°F 3°C 62°F 16°C (1951)
Min Temperature 21°F -6°C 23°F -5°C -3°F -19°C (1970)
Degree Days
Heating Degree Days 38    
Moisture
Dew Point 17°F -8°C   
Average Humidity 69    
Maximum Humidity 88    
Minimum Humidity 56    
Precipitation
Precipitation 0.00 in / 0.00 cm in / cm in / cm ()
Wind
Wind Speed 8 mph / 13 km/h   
Max Wind Speed 13 mph / 21 km/h   
Max Gust Speed mph / km/h   
Visibility 10 miles / 15 kilometers   
Events Snow   
Averages and records for this station are not official NWS values.
Key: T is trace of precipitation, MM is missing value
Source: NWS Daily Summary
Seasonal Weather Averages
Time(EST)TemperatureDew PointHumidity Pressure Visibility Wind DirectionWind SpeedGust SpeedPrecipitationEvents Conditions
12:56 AM 27.0°F -2.8°C 23.0°F -5.0°C 85% 30.01 in / 1016.1 hPa 7.0 miles / 11.3 kilometers WSW 5.8 mph / 9.3 km/h - 0.00 in / 0.0 cm Snow Light Snow
1:15 AM 26.6°F -3.0°C 21.2°F -6.0°C 80% 29.97 in / 1014.8 hPa 5.0 miles / 8.0 kilometers West 8.1 mph / 13.0 km/h - 0.00 in / 0.0 cm Snow Light Snow
1:45 AM 26.6°F -3.0°C 21.2°F -6.0°C 80% 29.97 in / 1014.8 hPa 9.0 miles / 14.5 kilometers West 4.6 mph / 7.4 km/h - 0.00 in / 0.0 cm Snow Light Snow
1:56 AM 26.1°F -3.3°C 21.9°F -5.6°C 84% 30.00 in / 1015.9 hPa 9.0 miles / 14.5 kilometers WSW 3.5 mph / 5.6 km/h - 0.00 in / 0.0 cm Snow Light Snow
2:56 AM 25.0°F -3.9°C 21.9°F -5.6°C 88% 30.01 in / 1016.2 hPa 10.0 miles / 16.1 kilometers SSW 5.8 mph / 9.3 km/h - 0.00 in / 0.0 cm   Overcast
3:56 AM 26.1°F -3.3°C 21.9°F -5.6°C 84% 30.01 in / 1016.1 hPa 10.0 miles / 16.1 kilometers SSW 10.4 mph / 16.7 km/h - N/A   Overcast
4:56 AM 26.1°F -3.3°C 19.0°F -7.2°C 75% 30.01 in / 1016.1 hPa 10.0 miles / 16.1 kilometers SW 9.2 mph / 14.8 km/h - N/A   Overcast
5:56 AM 25.0°F -3.9°C 17.1°F -8.3°C 72% 30.02 in / 1016.5 hPa 10.0 miles / 16.1 kilometers SW 8.1 mph / 13.0 km/h - N/A   Scattered Clouds
6:30 AM 23.0°F -5.0°C 15.8°F -9.0°C 74% 29.98 in / 1015.1 hPa 10.0 miles / 16.1 kilometers SSW 8.1 mph / 13.0 km/h - N/A   Partly Cloudy
6:56 AM 23.0°F -5.0°C 16.0°F -8.9°C 74% 30.02 in / 1016.4 hPa 10.0 miles / 16.1 kilometers SSW 10.4 mph / 16.7 km/h - N/A   Partly Cloudy
7:56 AM 23.0°F -5.0°C 16.0°F -8.9°C 74% 30.03 in / 1016.7 hPa 10.0 miles / 16.1 kilometers SW 9.2 mph / 14.8 km/h - N/A   Clear
8:56 AM 26.1°F -3.3°C 17.1°F -8.3°C 69% 30.03 in / 1016.8 hPa 10.0 miles / 16.1 kilometers SW 10.4 mph / 16.7 km/h - N/A   Clear
9:56 AM 27.0°F -2.8°C 16.0°F -8.9°C 63% 30.03 in / 1016.8 hPa 10.0 miles / 16.1 kilometers SW 10.4 mph / 16.7 km/h - N/A   Clear
10:56 AM 28.9°F -1.7°C 17.1°F -8.3°C 61% 30.02 in / 1016.5 hPa 10.0 miles / 16.1 kilometers SW 11.5 mph / 18.5 km/h - N/A   Clear
11:56 AM 30.9°F -0.6°C 17.1°F -8.3°C 57% 30.01 in / 1016.3 hPa 10.0 miles / 16.1 kilometers SSW 10.4 mph / 16.7 km/h - N/A   Clear
12:56 PM 30.0°F -1.1°C 17.1°F -8.3°C 59% 29.99 in / 1015.5 hPa 10.0 miles / 16.1 kilometers SW 10.4 mph / 16.7 km/h - N/A   Clear
1:56 PM 30.0°F -1.1°C 16.0°F -8.9°C 56% 29.96 in / 1014.4 hPa 10.0 miles / 16.1 kilometers SSW 6.9 mph / 11.1 km/h - N/A   Clear
2:56 PM 28.9°F -1.7°C 16.0°F -8.9°C 58% 29.97 in / 1014.9 hPa 10.0 miles / 16.1 kilometers South 9.2 mph / 14.8 km/h - N/A   Clear
3:56 PM 28.0°F -2.2°C 15.1°F -9.4°C 58% 29.96 in / 1014.4 hPa 10.0 miles / 16.1 kilometers SSW 12.7 mph / 20.4 km/h - N/A   Clear
4:56 PM 26.1°F -3.3°C 16.0°F -8.9°C 66% 29.97 in / 1014.8 hPa 10.0 miles / 16.1 kilometers South 10.4 mph / 16.7 km/h - N/A   Clear
5:56 PM 26.1°F -3.3°C 14.0°F -10.0°C 60% 29.94 in / 1013.9 hPa 10.0 miles / 16.1 kilometers South 6.9 mph / 11.1 km/h - N/A   Clear
6:56 PM 25.0°F -3.9°C 14.0°F -10.0°C 63% 29.99 in / 1015.4 hPa 10.0 miles / 16.1 kilometers South 9.2 mph / 14.8 km/h - N/A   Clear
7:56 PM 24.1°F -4.4°C 14.0°F -10.0°C 65% 29.98 in / 1015.0 hPa 10.0 miles / 16.1 kilometers South 5.8 mph / 9.3 km/h - N/A   Clear
8:56 PM 23.0°F -5.0°C 14.0°F -10.0°C 68% 29.96 in / 1014.6 hPa 10.0 miles / 16.1 kilometers SSE 4.6 mph / 7.4 km/h - N/A   Clear
9:56 PM 24.1°F -4.4°C 14.0°F -10.0°C 65% 29.98 in / 1015.1 hPa 10.0 miles / 16.1 kilometers SSW 3.5 mph / 5.6 km/h - N/A   Clear
10:56 PM 23.0°F -5.0°C 12.9°F -10.6°C 65% 29.96 in / 1014.5 hPa 10.0 miles / 16.1 kilometers SSW 5.8 mph / 9.3 km/h - N/A   Clear
11:56 PM 21.9°F -5.6°C 12.0°F -11.1°C 66% 29.96 in / 1014.6 hPa 10.0 miles / 16.1 kilometers SSW 5.8 mph / 9.3 km/h - N/A   Clear